Погода в Клаипеде

Поиск расширенной информации на нашем сайте:

Полезная информация:

Новости сайта



02.01.2020
Опубликован Долгосрочный прогноз погоды по городам России и ближнего зарубежья на январь 2020 года.
Карты: Прогноз на январь и февраль 2020 года, Сравнение прогнозируемой аномалии приземной температуры воздуха на январь 2020 года по разным моделям.




Погода в Клаипеде - сегодня

Время (UTC), дата Ветер
(°,м/с) 
Видим.   Явления Облачность Т
(°С)
Тd
(°С)
f(%) Тe
(°С)
Pmin
(гПа)
dP
(гПа)
Po
(мм)
O2
(г/м3)
Тmin Tmax R s Состояние
почвы
03 04.08.20 080 (В) 2-4{04}  18000 м  слаб. дождь  10/10 570 м 
[Frnb|Ns]
+15.7 +15.2 97 +25  1008.2  -0.8  755  285           
06 04.08.20 070 (В) 1-2{04}  12000 м  слаб. морось{дождь}  10/10 450 м 
[Frnb]
+16 +15.5 97 +26  1008.7  0.5  756  284  +15.6      мокрая 
09 04.08.20 330 (СЗ) 2-3{04}  20000 м    8/6 500 м средняя 
[Sc|Ac trans]
+18.3 +15.8 85 +29  1008.8  0.1  756  282           
12 04.08.20 330 (СЗ) 3-6{06}  20000 м    10/10 420 м 
[Sc]
+18.6 +15.6 83 +28  1009.9  1.1  757  282           
15 04.08.20 320 (СЗ) 3-6{08}  20000 м    10/4 450 м средняя 
[Sc|Ac As]
+18.3 +15.4 83 +28  1010.7  0.8  757  283           
18 04.08.20 330 (СЗ) 2-5{06}  20000 м    8/0 средняя 
[Ac trans]
+17.8 +14.7 82 +27  1012.1  1.4  758  284    +19.5       
21 04.08.20 300 (СЗ) 3-6{06}  20000 м    9/0 средняя 
[Ac und]
+17.1 +13.1 77 +23  1013  0.9  759  285           
00 05.08.20 290 (З) 2-5{06}  20000 м    3/0 средняя 
[Ac trans]
+16.9 +11 68 +20  1014  760  286           
03 05.08.20 280 (З) 2-3{05}  20000 м    ясно 
+16 +13.2 83 +22  1015.7  1.7  761  287           
06 05.08.20 300 (СЗ) 3-5{06}  20000 м    4/0 верхняя 
[Ci sp]
+18.3 +13.4 73 +25  1017.6  1.9  763  285  +15.5        влажная 
09 05.08.20 310 (СЗ) 3-6{08}  20000 м    6/0 верхняя 
[Ci sp]
+19.3 +11 59 +22  1019.6  764  286           
12 05.08.20 270 (З) 3-6{06}  20000 м    8/0 верхняя 
[Ci sp]
+19.7 +11.2 58 +23  1020.8  1.2  765  285           
15 05.08.20 240 (ЮЗ) 2-4{06}  20000 м    3/0 верхняя 
[Ci sp]
+20.2 +13.5 65 +26  1021.5  0.7  765  285           
18 05.08.20 220 (ЮЗ) 1-2{04}  20000 м    4/0 верхняя 
[Ci sp]
+17.6 +12.4 72 +23  1021.8  0.3  766  287    +20.8       
21 05.08.20 140 (ЮВ) 1-2{03}  20000 м    ясно 
+14.2 +11.9 86 +18  1022.5  0.7  766  291           
00 06.08.20 150 (ЮВ) 1-3{04}  20000 м    ясно 
+15 +11.9 82 +19  1023.1  0.6  767  291           
03 06.08.20 120 (ЮВ) 1-2{04}  20000 м    ясно 
+13 +11.5 91 +17  1024  0.9  767  293           
06 06.08.20 180 (Ю) 2-4{04}  20000 м    4/0 верхняя 
[Ci fib]
+18.7 +13.5 72 +26  1025.3  1.3  768  287  +12.8        влажная 
09 06.08.20 210 (ЮЗ) 2-4{05}  20000 м    6/0 верхняя 
[Ci fib]
+21.8 +14.1 62 +28  1026.6  1.3  769  284           
12 06.08.20 230 (ЮЗ) 2-4{05}  20000 м    4/0 верхняя 
[Ci fib]
+22.9 +14.6 59 +30  1027  0.4  770  283           
15 06.08.20 250 (З) 1-3{04}  20000 м    ясно 
+22 +14.4 62 +29  1026.6  -0.4  769  284           
18 06.08.20 360 (С) 1-2{03}  20000 м    ясно 
+19.9 +13.9 68 +27  1026.5  0.1  769  286    +23.1       
21 06.08.20 060 (СВ) 2-3{04}  20000 м    ясно 
+17.6 +11.6 68 +21  1027.2  0.7  770  289           
00 07.08.20 070 (В) 2-4{04}  20000 м    ясно 
+17.6 +9.1 57 +18  1027.4  0.2  770  290           
03 07.08.20 100 (В) 2-3{04}  20000 м    ясно 
+15.8 +11.2 74 +19  1027.7  0.3  770  291           
Время (UTC), дата Ветер
(°,м/с) 
Видим.   Явления Облачность Т
(°С)
Тd
(°С)
f(%) Тe
(°С)
Pmin
(гПа)
dP
(гПа)
Po
(мм)
O2
(г/м3)
Тmin Tmax R s Состояние
почвы

Для получения пояснительной информации подведите курсор к названию столбца.

ПОГОДА в Клаипеде - архив

Всё, что Вы хотите узнать о погоде в Клаипеде - удобно и подробно!

Выберите нужную дату (начиная с 1 января 2019* года) и нажмите кнопку "Найти".
Будут отображены архивные сводки погоды по пункту Клаипеда, начиная с указанной даты.


Отображать данные в формате CSV (для использования в таблицах Excel)


Внимание! Наш архив погоды предназначен исключительно для личного некоммерческого использования в познавательных целях. Если Вам необходимы официальные справки о состоянии погоды (для производственных, юридических, коммерческих и т.п. целей), обращайтесь в органы Росгидромета.

*Примечание: данная дата относится к архиву по метеостанциям СССР (Россия, СНГ, Балтия).
Архив по метеостанциям Зарубежной Европы и Азии (кроме Китая) хранится 10 дней, по другим регионам земного шара (Китай, Африка, Америка, Австралия, Океания) - 1 день.

Клаипеда - район местоположения метеостанции


Название, широта, долгота, высота метеостанции:
Клаипеда 55.7°ш. 21.1°д. 7 м над ур. моря [Литва]

Дополнительная информация

В oтличие oт бoльшинства пoгoдных сайтoв мы публикуем пoдрoбную метеoинфoрмацию в детальнoм прoфессиoнальнoм фoрмате.

Характеристики температуры и влажнoсти вoздуха измеряются на высoте 2 м в тени вдали oт зданий и деревьев.
Скoрoсть ветра измеряется на высoте 10 м (на урoвне рoста челoвека скoрoсть ветра ниже в 1.5-2 раза). Если метеoстанция нахoдится в гoрoде или в лесу, тo скoрoсть ветра занижена на 2-4 м/с пo сравнению с oткрытым местoм. Скoрoсть ветра над акватoриями крупных рек и oзёр, а также на вершинах хoлмoв на 2-5 м/с выше, чем в oбычных услoвиях.
Атмoсфернoе давление в разных тoчках местнoсти мoжет значительнo oтличаться oт давления на метеoстанции, в зависимoсти oт услoвий рельефа (при пoдъёме на 10 м давление пoнижается примернo на 1 мм рт.ст.).